Lid_Strength_Index
-0 -0 1 4 10 11 13 12 9 9 9 6 5 6 7 6 8 11 2 1 0 0 -0 -0 -1 -1 -1 -1 -1 -1 -1 -1 -1 -1 -1 -1 -1 -2 -1 -1 -1 -2 -1 -2 -2 -2 -2 -2 -2
1 1 4 7 13 15 13 10 11 8 7 5 5 5 7 8 5 4 3 1 0 -0 -0 -0 -1 -1 -1 -1 -1 -1 -1 -1 -1 -1 -1 -1 -1 -1 -1 -2 -2 -2 -1 -1 -2 -2 -2 -2 -2
2 3 7 9 12 14 13 10 9 7 6 6 6 5 6 7 4 3 1 0 -0 0 0 -0 -1 -1 -1 -1 -1 -1 -1 -1 -1 -1 -1 -1 -1 -1 -1 -1 -2 -2 -1 -1 -1 -1 -2 -2 -2
7 4 6 11 13 10 9 8 7 7 6 5 5 7 4 2 3 2 1 0 0 1 0 -1 -1 -1 -1 -1 -1 -1 -1 -1 -1 -1 -1 -1 -1 -1 -1 -1 -2 -1 -1 -1 -1 -1 -1 -1 -2
7 7 11 13 11 10 9 7 6 8 7 6 6 8 6 3 2 1 1 0 1 1 0 -0 -1 -1 -1 -1 -1 -1 -1 -1 -1 -1 -1 -1 -1 -1 -2 -2 -2 -2 -1 -1 -1 -1 -2 -2 -2
9 9 13 14 11 9 8 7 6 7 6 6 6 7 6 2 2 1 1 1 0 0 0 -0 -1 -1 -1 -1 -1 -1 -1 -1 -1 -1 -1 -1 -1 -2 -2 -2 -2 -2 -2 -2 -2 -2 -2 -2 -2
10 12 13 12 11 10 8 7 8 7 7 7 5 8 6 4 2 1 1 0 0 -0 0 -0 -0 -1 -1 -1 -1 -1 -1 -1 -1 -1 -1 -1 -2 -2 -2 -2 -2 -2 -2 -2 -2 -2 -2 -2 -2
10 12 13 12 12 12 9 8 5 6 6 4 4 8 8 4 2 2 1 1 1 0 -0 0 0 0 -0 -0 -1 -1 -1 -1 -1 -1 -1 -2 -2 -2 -2 -2 -2 -2 -2 -2 -2 -2 -2 -2 -2
9 13 15 13 13 11 9 11 6 4 6 5 4 5 3 2 2 2 2 2 1 1 0 0 0 0 0 -0 -1 -1 -1 -1 -1 -1 -1 -1 -0 -1 -1 -2 -2 -2 -2 -2 -2 -2 -2 -2 -2
11 14 13 10 10 10 10 11 11 6 7 7 6 4 3 2 3 3 4 4 3 2 1 0 0 0 0 -0 -0 0 -0 -0 -0 -0 -0 0 0 0 -1 -1 -3 -2 -2 -2 -2 -2 -2 -2 -0
11 12 9 8 9 9 10 10 9 7 9 7 7 5 3 3 4 4 3 3 3 2 1 0 0 0 0 0 0 0 0 0 0 0 0 0 0 0 0 0 -0 -0 -1 -0 -1 -1 -0 0 0
12 9 8 8 7 10 10 10 9 7 8 5 4 4 3 4 4 4 3 3 2 2 1 1 0 0 1 0 0 0 0 0 0 0 0 1 0 1 0 0 0 0 0 0 0 0 0 0 -0
12 10 8 7 8 11 10 11 9 8 6 4 4 4 4 4 4 4 2 2 2 2 2 1 0 0 0 0 0 0 0 0 0 0 0 0 0 1 1 0 0 0 1 1 0 0 0 0 0
11 10 9 9 9 11 12 11 6 6 7 5 5 5 4 4 4 4 3 3 2 2 2 1 1 1 0 0 0 0 0 0 0 0 0 0 0 1 1 1 0 1 1 0 0 1 1 1 2
11 12 11 10 10 11 11 12 8 6 5 6 6 5 5 4 3 4 3 3 3 2 2 2 2 2 0 1 0 0 0 -0 0 0 0 -0 0 1 1 1 2 1 2 1 1 1 1 2 1
13 14 15 12 10 10 10 14 8 6 6 7 6 6 5 4 4 3 3 2 2 2 3 2 1 2 1 1 1 0 0 0 0 0 0 -0 0 0 1 2 2 2 1 1 1 1 2 2 1
14 14 14 12 10 11 11 10 8 6 7 7 7 6 5 5 5 4 3 3 2 2 2 2 2 2 1 1 1 1 1 1 1 1 0 0 -0 -0 0 1 2 1 2 1 1 1 2 2 1
15 15 14 12 10 11 11 10 8 7 7 8 7 6 6 6 6 4 3 2 2 2 2 1 2 2 2 1 1 2 2 2 2 2 1 0 -0 -0 0 1 1 1 0 1 2 2 2 1 1
12 12 12 11 10 11 9 10 9 8 8 8 7 7 8 6 5 3 3 4 3 3 3 3 1 1 2 1 2 2 2 1 1 1 1 0 -0 0 0 1 1 1 1 1 1 3 3 3 2
11 12 14 12 9 9 10 10 9 8 8 7 8 8 7 6 5 4 5 5 4 4 5 4 4 4 2 1 1 2 1 1 1 1 3 3 3 3 1 1 1 2 1 1 2 2 2 2 2
14 13 14 13 11 10 10 12 11 9 7 7 7 7 7 6 6 5 4 5 5 5 5 5 5 5 5 4 3 2 2 2 2 3 4 3 3 2 2 2 2 2 1 1 1 2 3 3 2
15 12 12 13 14 17 13 16 13 11 10 9 8 8 6 6 5 4 4 4 5 6 6 7 7 5 6 5 4 4 4 3 3 3 4 3 2 2 1 2 3 3 1 2 1 1 3 3 3
13 11 13 13 14 15 15 17 14 11 12 10 10 8 6 5 5 5 4 5 5 6 7 7 8 8 7 7 6 5 5 5 5 4 4 3 3 2 1 1 2 2 2 2 3 3 3 2 3
10 12 14 15 17 20 16 16 17 13 11 10 9 8 6 6 5 4 3 3 5 5 6 6 7 8 8 8 7 7 7 6 7 7 7 7 4 4 6 2 2 1 2 1 1 2 2 2 2
12 15 18 17 18 18 14 15 14 10 9 8 9 8 7 6 5 5 5 5 4 4 4 5 6 7 7 7 6 6 7 7 7 8 7 7 7 7 7 6 6 4 3 2 1 1 2 2 1
14 15 18 19 19 17 13 15 14 9 7 7 7 7 6 6 5 6 5 4 4 4 4 4 4 4 4 3 3 3 3 3 3 4 5 5 5 6 7 7 6 7 5 5 5 3 3 3 2
13 16 14 16 16 17 15 14 10 9 8 8 8 7 7 6 5 5 5 4 4 4 4 4 4 3 2 2 3 3 3 4 3 4 4 4 5 5 5 6 6 7 7 7 6 6 6 6 5
12 12 16 17 18 19 16 16 16 13 10 9 8 8 8 7 6 5 5 5 4 4 4 4 3 2 2 2 2 4 4 5 5 6 6 4 6 6 6 6 6 5 6 6 6 7 7 7 6
13 14 14 15 16 18 19 16 11 11 9 9 8 7 7 6 6 5 4 5 4 4 4 4 3 3 3 3 3 3 4 4 6 6 6 6 7 7 7 6 6 6 6 6 6 6 7 7 7
11 13 13 15 16 16 16 15 10 8 8 9 9 7 6 6 5 5 5 4 4 4 4 4 3 4 3 3 3 3 4 4 5 6 6 7 7 7 7 6 6 6 6 5 5 6 7 7 6